Weather History for Idaho Falls, ID

Change the Weather History Date:

Thursday, May 16, 2013

  Actual Average Record
Temperature  
Mean Temperature 63 °F 53 °F  
Max Temperature 73 °F 67 °F 93 °F (1964)
Min Temperature 52 °F 39 °F 23 °F (1974)
Degree Days  
Heating Degree Days 2 12  
Month to date heating degree days 144 226  
Since 1 July heating degree days 7253 7539  
Cooling Degree Days 0 0  
Month to date cooling degree days 4 0  
Year to date cooling degree days 4 0  
Growing Degree Days 14 (Base 50)    
Moisture  
Dew Point 39 °F    
Average Humidity 43    
Maximum Humidity 57    
Minimum Humidity 28    
Precipitation  
Precipitation T in 0.05 in 0.62 in (1980)
Month to date precipitation 0.08 0.75  
Year to date precipitation 1.46 4.10  
Sea Level Pressure  
Sea Level Pressure 29.76 in    
Wind  
Wind Speed 13 mph (SW)    
Max Wind Speed 24 mph    
Max Gust Speed 33 mph    
Visibility 10 miles    
Events      
T = Trace of Precipitation, MM = Missing Value Source: NWS Daily Summary

Daily Weather History Graph

Daily Weather History Graph

Search for Another Location

Airport:

Trip Planner

Search our weather history database for the weather conditions in past years. The results will help you decide how hot, cold, wet, or windy it might be!

Date:

Astronomy

May. 16, 2013 Rise Set
Actual Time 6:02 AM MDT 8:47 PM MDT
Civil Twilight 5:29 AM MDT 9:21 PM MDT
Nautical Twilight 4:47 AM MDT 10:03 PM MDT
Astronomical Twilight 3:59 AM MDT 10:51 PM MDT
Moon 11:42 AM MDT (5/16) 1:07 AM MDT (5/16)
Length of Visible Light 15h 51m
Length of Day
14h 45m
Waxing Crescent, 36% of the Moon is Illuminated
May 16
Waxing Crescent
May 17
First Quarter
May 24
Full
May 31
Last Quarter
Jun 8
New

Hourly Weather History & Observations

Time (MDT) Temp. Dew Point Humidity Pressure Visibility Wind Dir Wind Speed Gust Speed Precip Events Conditions
12:53 AM 63.0 °F 37.9 °F 40% 29.73 in 10.0 mi SW 9.2 mph - N/A   Clear
1:53 AM 63.0 °F 39.0 °F 41% 29.72 in 10.0 mi South 11.5 mph - N/A   Mostly Cloudy
2:53 AM 61.0 °F 39.9 °F 46% 29.72 in 10.0 mi SW 12.7 mph - N/A   Mostly Cloudy
3:53 AM 57.0 °F 43.0 °F 59% 29.73 in 10.0 mi SW 10.4 mph - N/A   Mostly Cloudy
4:53 AM 57.9 °F 43.0 °F 58% 29.74 in 10.0 mi SSW 8.1 mph - 0.00 in   Overcast
5:53 AM 57.0 °F 41.0 °F 55% 29.74 in 10.0 mi South 12.7 mph - 0.00 in   Mostly Cloudy
6:53 AM 57.0 °F 37.9 °F 49% 29.77 in 10.0 mi SSW 12.7 mph - N/A   Overcast
7:53 AM 57.0 °F 39.0 °F 51% 29.79 in 10.0 mi SSW 15.0 mph - 0.00 in   Mostly Cloudy
8:53 AM 60.1 °F 37.9 °F 44% 29.79 in 10.0 mi SSW 20.7 mph 27.6 mph N/A   Mostly Cloudy
9:53 AM 61.0 °F 39.0 °F 44% 29.80 in 10.0 mi SW 20.7 mph 26.5 mph N/A   Partly Cloudy
10:53 AM 64.9 °F 39.0 °F 39% 29.79 in 10.0 mi SW 16.1 mph - N/A   Mostly Cloudy
11:53 AM 68.0 °F 37.0 °F 32% 29.78 in 10.0 mi SSW 12.7 mph 19.6 mph N/A   Mostly Cloudy
12:53 PM 69.1 °F 37.9 °F 32% 29.76 in 10.0 mi SSW 17.3 mph 24.2 mph N/A   Mostly Cloudy
1:53 PM 71.1 °F 39.0 °F 31% 29.73 in 10.0 mi SW 13.8 mph 23.0 mph N/A   Clear
2:53 PM 71.1 °F 37.0 °F 29% 29.72 in 10.0 mi SW 12.7 mph - N/A   Mostly Cloudy
3:53 PM 70.0 °F 36.0 °F 29% 29.72 in 10.0 mi SSW 18.4 mph 27.6 mph N/A   Mostly Cloudy
4:53 PM 66.9 °F 41.0 °F 39% 29.72 in 10.0 mi WSW 9.2 mph - 0.00 in   Mostly Cloudy
5:53 PM 66.9 °F 36.0 °F 32% 29.74 in 10.0 mi WSW 17.3 mph 23.0 mph N/A   Mostly Cloudy
6:53 PM 64.9 °F 37.0 °F 36% 29.75 in 10.0 mi WSW 15.0 mph - N/A   Mostly Cloudy
7:53 PM 61.0 °F 37.9 °F 42% 29.78 in 10.0 mi West 16.1 mph - N/A   Overcast
8:53 PM 57.9 °F 39.9 °F 51% 29.80 in 10.0 mi West 10.4 mph 20.7 mph 0.00 in   Overcast
9:53 PM 57.0 °F 41.0 °F 55% 29.81 in 10.0 mi SSE 6.9 mph - 0.00 in   Mostly Cloudy
10:53 PM 57.0 °F 39.9 °F 53% 29.80 in 10.0 mi South 11.5 mph - N/A   Overcast
11:53 PM 55.9 °F 39.9 °F 55% 29.79 in 10.0 mi SW 5.8 mph - N/A   Overcast